Location: ???? ??? ????
(31.0658°N, 31.5591°E)
Time: 09:10:21
(UTC+00:00)

Daily predictions for brighter satellites

Satellite Brightness Start Highest point End
(mag) Time Altitude Azimuth Time Altitude Azimuth Time Altitude Azimuth
NOSS 2-3 (D) 3.9 17:11:11 10° SW 17:15:18 70° WNW 17:19:46 10° NNE
STARLINK-1236 3.6 17:11:32 10° SW 17:15:39 76° SE 17:19:47 10° NE
Meteor 1-4 Rocket 4.3 17:13:43 10° SE 17:15:41 15° E 17:17:39 10° NE
Cosmos 2056 Rocket 3.7 17:10:50 10° S 17:15:42 46° ESE 17:20:34 10° NNE
Cosmos 44 Rocket 3.6 17:12:23 10° NNW 17:17:13 56° ENE 17:22:09 10° SE
STARLINK-1190 4.2 17:14:42 10° NNW 17:18:42 45° NE 17:22:40 10° ESE
Cosmos 1862 Rocket 4.5 17:17:18 10° SSW 17:21:37 54° W 17:25:56 10° N
Cosmos 1733 Rocket 3.2 17:18:21 10° N 17:22:43 81° W 17:27:00 10° S
CZ-2C R/B 3.2 17:17:46 10° SSE 17:23:05 75° ENE 17:28:44 10° N
STARLINK-1129 4.1 17:19:39 10° NNW 17:23:41 51° NE 17:27:42 10° ESE
Cosmos 1607 4.1 17:18:34 10° NNW 17:25:01 87° ENE 17:31:28 10° SSE
STARLINK-1269 3.7 17:21:25 10° SW 17:25:33 85° NW 17:29:41 10° NE
STARLINK-1134 3.9 17:24:35 10° NW 17:28:40 57° NE 17:32:35 11° SE
STARLINK-1200 3.8 17:26:26 10° SW 17:30:33 75° NW 17:34:41 10° NE
Cosmos 389 Rocket 2.4 17:28:01 10° S 17:31:27 88° E 17:34:55 10° N
Cosmos 2278 Rocket 2.4 17:26:57 10° S 17:32:23 49° ESE 17:37:50 10° NNE
STARLINK-1135 3.8 17:29:32 10° NW 17:33:38 64° NE 17:37:21 12° SE
STARLINK-1192 4.1 17:31:27 10° SW 17:35:33 67° NW 17:39:40 10° NE
ASTRO E2 3.2 17:33:09 10° SW 17:36:52 40° SSE 17:40:36 10° E
Cosmos 1666 3.8 17:34:12 10° NNW 17:37:53 46° W 17:41:31 10° SSW
STARLINK-1141 3.6 17:34:31 10° NW 17:38:39 73° NE 17:42:09 14° SE
Centaur AC-125 3.2 17:35:50 10° WSW 17:38:52 55° S 17:48:59 10° E
DMSP B5D2-2 4.2 17:33:47 10° NNE 17:38:58 56° E 17:44:07 10° S
MOS 1 4.3 17:34:52 10° SSE 17:40:31 68° ENE 17:46:10 10° N
STARLINK-1244 4.3 17:36:26 10° SW 17:40:31 59° NW 17:44:37 10° NE
Delta 198 4.3 17:36:30 10° WSW 17:40:58 35° S 17:44:03 15° SE
FREGAT/IRIS 2.2 17:38:45 10° SSE 17:41:25 85° ENE 17:44:05 10° N
Cosmos 371 Rocket 4.3 17:37:50 10° SSE 17:41:43 25° E 17:45:39 10° NE
CREW DRAGON DEMO-1 DEB 3.9 17:38:55 10° NNW 17:41:46 33° NE 17:43:54 15° ESE
STARLINK-1140 3.6 17:39:27 10° NW 17:43:36 82° NE 17:46:55 15° SE
EXPRESS MD2 2.1 17:41:26 10° SW 17:43:37 63° SE 17:46:47 10° NE
Aureole 1 Rocket 4.5 17:39:41 10° N 17:44:10 33° ENE 17:48:45 14° SE
Cosmos 1452 Rocket 4.4 17:41:48 10° SSE 17:46:17 29° E 17:50:46 10° NE
Cosmos 1420 Rocket 4.2 17:43:03 10° S 17:48:02 47° ESE 17:52:59 10° NNE
STARLINK-1156 3.6 17:44:26 10° NW 17:48:35 89° SW 17:51:42 17° SE
Cosmos 407 Rocket 3.9 17:44:23 10° N 17:49:33 47° ENE 17:53:39 16° SE
Cosmos 1515 3.7 17:46:05 10° S 17:49:48 56° E 17:53:33 10° NNE
Cosmos 1544 4.2 17:50:18 10° NNE 17:53:24 26° E 17:54:50 20° ESE
STARLINK-1148 3.6 17:49:26 10° NW 17:53:34 79° SW 17:56:30 18° SE
Cosmos 1703 Rocket 3.9 17:52:02 10° SSW 17:56:20 68° W 18:00:38 10° N
Sakura Rocket 4.4 17:51:35 10° WSW 17:57:49 62° SSE 18:06:32 10° E
Cosmos 1782 Rocket 4.0 17:53:34 10° N 17:57:52 44° E 18:00:45 19° SSE
Cosmos 2034 Rocket 4.0 17:52:01 10° N 17:58:12 89° W 18:04:21 10° S
STARLINK-1158 3.7 17:54:23 10° NW 17:58:31 70° SW 18:01:16 20° SSE
Cosmos 614 Rocket 3.9 17:56:15 10° NNW 18:01:21 83° ENE 18:05:34 15° SSE
Lacrosse 5 4.1 18:01:16 10° N 18:03:27 13° NE 18:05:37 10° ENE
STARLINK-1162 3.9 17:59:24 10° NW 18:03:29 61° SW 18:06:04 21° SSE
Iridium 51 4.4 18:01:17 16° SSE 18:04:26 52° E 18:08:08 10° NNE
Meteor 1-19 Rocket 4.2 17:59:49 10° S 18:05:22 86° W 18:11:08 10° N
Resurs 01 Rocket 2.4 18:03:47 22° ESE 18:05:57 35° ENE 18:10:00 10° N
SL-08 RB Rocket 4.1 18:03:17 10° S 18:07:53 65° W 18:12:25 10° NNW
Cosmos 1140 Rocket 3.7 18:04:37 10° N 18:09:43 54° ENE 18:12:43 24° SE
Sich 1 Rocket 4.2 18:07:30 10° N 18:11:51 41° E 18:13:47 27° SE
Cosmos 1437 Rocket 4.3 18:13:20 18° ENE 18:13:20 18° ENE 18:15:29 10° NE
Okean 3 3.6 18:10:16 20° SSE 18:12:59 52° E 18:17:11 10° NNE
STARLINK-1159 4.3 18:09:27 10° NW 18:13:26 47° SW 18:15:38 23° SSE
CZ-2C R/B 4.4 18:09:58 10° N 18:14:22 56° WNW 18:18:50 10° SSW
Cosmos 1461 3.2 18:12:51 18° S 18:15:26 41° ESE 18:19:22 10° NE
Cosmos 1908 Rocket 4.3 18:11:43 10° NNW 18:16:03 52° W 18:20:23 10° S
Cosmos 1190 Rocket 4.0 18:11:17 10° NNW 18:16:30 72° ENE 18:19:36 25° SSE
GPS 2-04 Rocket1 3.3 18:14:14 10° W 18:17:37 47° N 18:20:34 14° ENE
Cosmos 1975 2.7 18:14:10 10° N 18:18:11 70° E 18:20:04 30° SSE
STARLINK-1171 4.5 18:14:28 10° WNW 18:18:24 42° SW 18:20:26 24° S
MetOp-A 4.2 18:14:07 15° S 18:18:36 83° WSW 18:23:58 10° NNW
NOSS 8 (F) 4.4 18:16:29 10° SSW 18:20:24 88° WNW 18:23:33 10° NNE
Okean 2 Rocket 4.0 18:16:56 10° NNE 18:20:47 29° E 18:21:31 28° E
SPOT 3 Rocket 3.5 18:17:17 19° SSE 18:21:03 90° WSW 18:26:14 10° NNW
ASTEX 1 4.3 18:16:50 10° SSW 18:21:31 47° W 18:26:14 10° NNW
Meteor 2-4 Rocket 3.5 18:17:37 10° S 18:23:00 82° E 18:28:21 10° N
SL-4 R/B 3.8 18:24:28 10° NE 18:24:59 11° NE 18:24:59 11° NE
COSMOS 2406 3.3 18:20:49 10° NNW 18:26:33 67° ENE 18:29:22 31° SE
Chunghua 1 4.4 18:26:29 10° WSW 18:30:19 80° SSE 18:31:41 38° E
STARLINK-1089 4.5 18:26:46 10° NNW 18:30:40 39° NE 18:31:49 32° E
H-2A R/B 4.2 18:27:23 10° SW 18:31:07 21° W 18:34:55 10° NW
Cosmos 2297 4.0 18:32:03 30° SSE 18:34:15 44° ESE 18:39:38 10° NE
Resurs 1-3 3.9 18:33:03 25° S 18:35:31 63° W 18:39:52 10° NNW
Cosmos 1634 Rocket 3.9 18:29:15 10° N 18:35:35 78° E 18:39:16 27° SSE
STARLINK-1107 4.3 18:31:42 10° NNW 18:35:39 43° NE 18:36:36 37° E
Cosmos 332 Rocket 3.7 18:33:01 20° S 18:36:25 73° ESE 18:41:18 10° NNE
Spot 2 Rocket 4.1 18:38:25 35° ESE 18:39:31 39° ENE 18:44:11 10° N
Hubble Space Telescope 1.7 18:35:51 10° W 18:39:34 33° SSW 18:39:34 33° SSW
STARLINK-1066 4.1 18:36:38 10° NNW 18:40:39 49° NE 18:41:23 43° ENE
Cosmos 1954 Rocket 4.0 18:35:58 10° N 18:41:14 68° ENE 18:42:57 42° SE
CZ-2C R/B 4.3 18:38:03 10° N 18:43:08 36° WNW 18:48:12 10° SW
Meteor 1-13 Rocket 4.1 18:42:06 25° S 18:45:31 83° E 18:51:12 10° N
SEDSat Delta rocket 4.2 18:38:58 10° W 18:45:34 55° SSW 18:47:50 38° SSE
STARLINK-1081 3.9 18:41:34 10° NNW 18:45:38 55° NE 18:46:09 50° ENE
Cosmos 1943 Rocket 3.8 18:48:47 18° ENE 18:48:47 18° ENE 18:50:59 10° NE
Cosmos 1833 Rocket 2.7 18:43:19 10° NNW 18:48:53 63° ENE 18:50:26 45° SE
STARLINK-1070 3.7 18:46:31 10° NW 18:50:37 62° NE 18:50:57 59° ENE
Cosmos 2082 Rocket 2.9 18:45:41 10° N 18:50:58 38° ENE 18:52:04 35° E
Cosmos 1331 Rocket 4.4 18:55:03 42° E 18:55:03 42° E 18:59:30 10° NNE
Cosmos 2369 Rocket 4.2 18:57:31 13° ENE 18:57:31 13° ENE 18:58:32 10° ENE
STARLINK-1069 3.6 18:51:28 10° NW 18:55:36 69° NE 18:55:44 69° ENE
Cosmos 676 Rocket 4.0 18:52:19 10° NNW 18:57:35 79° WSW 18:59:06 48° S
Meteor 1-12 Rocket 4.1 18:54:21 10° N 19:00:02 81° E 19:01:36 50° SSE
Cosmos 1300 Rocket 3.4 18:55:41 10° N 19:00:08 79° E 19:00:21 76° ESE
STARLINK-1085 3.5 18:56:26 10° NW 19:00:30 78° NNE 19:00:30 78° NNE
GENESIS II 4.2 18:57:12 10° NNW 19:00:59 75° W 19:00:59 75° W
Centaur D-1A AC-32 3.9 18:51:14 10° W 19:02:40 32° SW 19:03:47 30° SSW
STARLINK-1086 3.6 19:01:25 10° NW 19:05:18 78° NNW 19:05:18 78° NNW
Orbus 7S 4.1 19:04:43 10° WSW 19:08:13 60° S 19:08:32 58° SSE
Cosmos 1066 Rocket 4.0 19:08:14 63° SE 19:08:43 66° E 19:14:02 10° NNE
Cosmos 1674 Rocket 3.4 19:10:31 84° WNW 19:10:31 84° WNW 19:14:53 10° N
STARLINK-1095 3.8 19:06:23 10° NW 19:10:05 69° WNW 19:10:05 69° WNW
Cosmos 1378 Rocket 3.7 19:15:22 64° NNE 19:15:22 64° NNE 19:19:09 10° N
STARLINK-1077 4.0 19:11:23 10° NW 19:14:52 59° WNW 19:14:52 59° WNW
Milstar 3 Cent rocket 4.1 19:07:49 10° SW 19:16:18 50° SSE 19:34:21 10° E
Terra 3.3 19:17:56 25° NE 19:17:56 25° NE 19:21:01 10° NNE
ASTRO E2 3.9 19:13:13 10° W 19:15:35 35° W 19:15:35 35° W
STARLINK-1075 4.3 19:16:22 10° NW 19:19:38 50° WNW 19:19:38 50° WNW
OAO 1 4.4 19:22:04 10° WSW 19:27:36 88° NNW 19:27:51 82° NE
H-2A R/B 4.0 19:29:42 10° WSW 19:31:27 20° SW 19:31:27 20° SW
ATLAS 3B CENTAUR R/B 2.8 19:23:53 10° WSW 19:37:07 69° S 19:37:57 64° SE
Resurs 01 Rocket 4.0 19:41:21 14° WSW 19:42:29 15° W 19:45:08 10° WNW
Nadezhda 4 Rocket 4.1 19:41:50 56° SW 19:42:57 68° W 19:49:04 10° N
ISS -0.9 19:42:16 10° NNW 19:43:18 17° NNW 19:43:18 17° NNW
Lacrosse 5 2.3 19:42:03 10° NW 19:46:11 59° NNW 19:46:11 59° NNW
Meteor 1-15 Rocket 4.3 19:43:13 10° N 19:49:06 79° W 19:49:06 79° W
ATLAS 2AS CENTAUR R/B 3.4 19:55:18 45° E 19:55:18 45° E 20:01:30 10° NE
SeaSat 1 4.3 19:49:54 10° NE 19:51:36 21° NE 19:51:36 21° NE
ERS-1 Rocket 3.6 19:59:54 52° WNW 19:59:54 52° WNW 20:03:59 10° NNW
BREEZE-M DEB (TANK) 4.3 20:03:34 10° NW 20:11:24 38° NNE 20:11:49 37° NE
SPOT 5 4.1 20:16:44 41° WNW 20:16:44 41° WNW 20:20:44 10° NNW
Cosmos 1943 Rocket 3.3 20:30:14 37° WNW 20:30:14 37° WNW 20:35:22 10° N
Cosmos 2082 Rocket 4.0 20:30:24 10° NW 20:33:55 22° W 20:33:55 22° W
Cosmos 2369 Rocket 3.2 20:39:15 43° NW 20:39:15 43° NW 20:43:50 10° N
Terra 4.2 20:56:49 18° WNW 20:56:49 18° WNW 20:58:31 10° NW
COSMOS 2455 4.1 21:03:08 35° NNE 21:03:08 35° NNE 21:06:28 10° NNE
NOSS 3-2 (C) 4.3 21:07:37 10° NNW 21:15:22 64° NE 21:15:22 64° NE
NOSS 3-4 (A) 4.5 21:17:47 40° NNW 21:17:47 40° NNW 21:22:35 10° NNE
NOSS 3-4 (C) 4.5 21:17:55 40° NNW 21:17:55 40° NNW 21:22:41 10° NNE
CENTAUR R/B 3.5 21:09:26 10° NNW 21:17:44 59° ENE 21:18:05 59° ENE
ATLAS 3B R/B 4.3 21:12:39 10° N 21:18:11 25° NE 21:19:16 24° ENE
ATLAS 2AS CENTAUR R/B 4.2 21:42:38 29° W 21:45:03 34° NW 21:52:10 10° NNE
ATLAS CENTAUR R/B 4.5 21:55:43 13° NNW 21:55:43 13° NNW 21:56:24 10° N
FALCON 9 R/B 3.6 22:00:02 44° ENE 22:00:02 44° ENE 22:09:28 10° E
Cosmos 2227 Rocket 4.3 22:27:27 10° NNE 22:31:24 19° ENE 22:32:17 18° ENE
USA 215 3.8 22:35:45 51° NW 22:35:45 51° NW 22:40:28 10° NW
ATLAS 3B R/B 3.7 23:02:25 10° NW 23:06:28 36° WNW 23:06:28 36° WNW
Cosmos 1980 Rocket 3.4 23:16:03 35° ENE 23:16:03 35° ENE 23:20:03 10° NE
CZ-4C R/B 3.2 23:17:02 38° N 23:17:02 38° N 23:20:35 10° NNE
ADEOS II 3.9 23:16:09 10° NE 23:19:52 22° E 23:19:52 22° E
Cosmos 841 Rocket 4.3 23:30:51 48° NE 23:30:51 48° NE 23:34:41 10° NNE
Cosmos 2219 4.0 23:26:02 10° NNW 23:29:44 43° NNW 23:29:44 43° NNW
Resurs 1-4 Rocket 2.7 23:31:46 10° N 23:35:50 54° N 23:35:50 54° N
Cosmos 2297 Rocket 2.7 23:33:34 10° NNW 23:37:47 52° NNW 23:37:47 52° NNW
GEOS 3 Rocket 4.0 23:42:48 58° ENE 23:42:56 58° NE 23:48:05 10° NNW
CZ-2D R/B 2.7 23:38:50 10° N 23:42:50 51° NNW 23:42:50 51° NNW
Cosmos 2082 4.4 23:41:54 10° N 23:47:21 48° ENE 23:48:37 41° ESE
Cosmos 2278 3.9 23:48:13 67° N 23:48:13 67° N 23:53:09 10° NNE
Cosmos 2322 Rocket 4.3 23:47:29 14° ESE 23:49:05 16° E 23:52:16 10° ENE
CBERS-1 4.5 23:44:09 10° NNE 23:48:38 56° ENE 23:48:38 56° ENE
GP-B 4.3 23:46:22 10° N 23:49:11 39° N 23:49:11 39° N
Cosmos 2184 Rocket 4.2 23:52:46 56° SE 23:53:31 61° E 23:59:34 10° NNE
